Wind_Speed
2 2 3 3 3 5 6 6 5 4 5 5 5 5 6 6 7 8 7 6 6 5 6 8 10 11 12 14 14 13 14 12 11 11 11 12 12 13 12 12 11 12 16 15 13
3 3 3 3 2 2 3 4 5 6 7 7 7 6 6 6 7 8 8 9 8 8 8 8 8 8 12 15 17 17 16 16 14 13 12 13 12 13 13 14 15 15 15 18 15
4 4 4 4 3 3 3 4 5 6 7 8 8 8 7 7 7 7 8 8 9 9 10 11 11 10 11 12 14 13 14 15 15 14 13 13 13 14 14 16 19 19 17 16 18
6 5 4 4 4 4 5 5 6 7 8 8 9 9 9 9 9 9 9 9 10 10 10 12 13 13 12 13 14 15 14 14 14 14 14 14 15 16 17 19 21 19 17 18 20
8 7 7 6 5 5 5 5 7 8 9 10 10 10 11 11 11 10 11 10 11 12 13 14 14 14 14 15 16 16 16 14 13 14 14 16 18 18 20 21 20 20 19 20 21
11 10 10 9 8 7 5 6 7 8 10 11 12 12 12 12 12 13 13 13 14 15 16 15 14 14 16 17 18 17 18 15 14 13 16 19 18 18 20 20 21 22 21 20 19
15 14 13 12 10 10 9 7 7 7 9 10 12 12 12 12 14 15 15 15 15 16 17 16 14 14 15 18 19 20 20 18 17 18 18 16 18 20 22 23 23 22 19 19 19
19 18 17 15 14 12 11 11 10 9 9 11 11 11 11 12 13 15 14 14 15 16 16 15 14 15 15 17 19 19 17 16 16 18 18 18 21 22 23 23 19 18 20 20 19
22 22 21 19 17 15 14 13 12 12 12 11 12 13 12 12 12 14 15 14 15 15 15 14 15 15 16 16 17 16 16 15 16 17 18 19 21 21 19 16 16 17 18 17 16
24 24 23 23 22 19 17 16 15 15 16 14 13 15 16 15 15 14 14 14 15 16 16 15 16 16 16 16 17 18 17 18 20 19 19 20 20 21 17 13 15 16 15 15 17
23 25 25 24 25 21 20 19 18 17 18 17 16 16 17 17 17 17 16 16 17 16 17 17 18 18 20 19 20 20 20 21 21 20 19 21 20 20 18 16 16 18 17 18 18
23 23 25 24 25 24 22 22 22 20 21 19 18 19 18 19 21 20 19 19 18 18 19 20 21 21 21 20 22 20 21 21 21 21 21 18 20 22 21 19 19 18 19 20 22
27 26 27 25 24 24 23 23 24 24 21 25 20 23 20 21 23 22 21 22 21 21 21 22 23 24 23 23 23 22 22 22 22 20 20 19 20 21 23 24 20 21 22 24 26
31 28 29 31 29 27 24 23 24 25 25 25 25 24 22 22 23 24 24 24 25 24 23 25 25 24 25 26 26 25 23 23 22 21 21 21 23 24 24 25 23 23 25 26 27
37 34 35 35 35 32 29 27 27 25 27 27 27 25 25 24 26 23 25 25 26 26 24 25 27 25 25 27 27 25 24 22 22 21 23 23 26 23 24 24 24 25 27 28 28
42 41 40 41 40 39 33 32 31 31 29 27 26 26 25 25 26 27 27 27 28 26 25 26 26 25 26 28 26 25 24 23 22 23 24 24 27 24 24 25 26 27 28 28 30
42 38 35 37 38 40 40 37 37 37 30 31 28 27 29 28 27 27 28 27 27 25 25 26 27 25 27 27 25 24 25 25 26 24 25 25 25 23 25 26 28 29 29 30 31
33 28 27 28 30 31 32 36 41 38 33 33 30 29 29 29 29 29 29 28 27 24 25 25 25 25 27 28 28 27 26 27 27 26 28 28 25 24 25 27 29 30 30 30 32
31 28 26 26 25 25 25 27 28 32 37 34 32 31 32 33 31 30 30 29 30 30 25 24 26 26 27 28 28 25 26 26 27 29 29 28 25 25 27 29 29 30 30 31 33
27 26 23 23 23 22 22 22 24 25 29 33 34 34 34 35 35 33 32 30 29 30 29 29 27 25 25 28 26 26 27 26 27 31 30 28 25 27 28 29 28 29 29 33 35
25 25 22 23 20 20 18 19 21 23 24 28 32 35 35 37 39 37 35 30 28 29 29 29 29 26 26 23 25 26 26 25 28 29 30 30 25 24 27 29 27 29 32 34 36
28 27 22 24 22 20 19 19 19 21 23 26 31 33 37 39 40 41 39 35 32 30 31 29 30 28 28 26 26 27 26 25 28 27 28 28 26 25 26 29 30 32 34 36 38
32 32 29 29 28 25 22 21 21 20 21 23 27 32 37 39 43 41 41 37 33 32 30 28 32 29 28 28 23 24 24 25 26 27 27 29 28 29 26 27 29 31 34 36 37
36 36 34 33 31 30 27 25 23 22 23 24 26 29 33 40 42 44 42 39 38 35 34 30 30 30 30 26 27 26 23 25 27 29 29 30 32 32 31 30 30 32 33 35 36
38 38 37 36 35 33 32 29 27 26 25 25 27 29 32 35 39 45 43 44 42 43 36 36 34 31 29 26 27 27 26 27 27 28 30 34 35 31 28 28 30 33 34 35 37
39 38 38 40 39 37 34 30 29 29 29 28 29 30 32 33 37 39 48 44 45 46 46 35 38 38 35 34 32 31 30 31 28 31 35 38 35 31 29 30 32 33 33 35 37
43 42 40 41 39 39 37 34 31 30 32 29 30 29 30 32 33 38 42 45 42 43 46 45 42 39 40 40 37 38 33 31 32 35 37 37 33 30 30 33 33 32 33 35 36
Wind_Direction
312 316 309 296 271 255 250 254 253 247 242 236 232 221 218 222 225 223 214 208 197 195 209 216 222 228 227 230 236 238 244 252 251 253 254 259 263 271 278 284 288 291 294 291 286
321 327 329 332 314 286 263 247 250 249 249 242 239 229 221 222 229 233 231 226 221 216 216 221 213 217 227 233 240 244 247 256 261 262 264 264 266 276 285 296 297 295 287 287 290
306 311 319 321 311 287 266 265 260 258 258 248 239 229 228 228 231 230 233 230 223 216 215 217 212 209 222 237 248 252 252 256 262 267 272 275 280 285 286 293 288 284 285 293 302
283 292 298 306 307 297 273 264 267 265 261 258 246 238 236 235 240 236 233 229 225 221 218 220 215 210 216 233 244 251 247 252 259 266 272 274 274 273 280 280 284 292 297 301 299
275 281 290 294 295 296 291 275 259 259 262 260 254 247 244 245 247 247 238 233 228 227 223 223 221 218 217 228 238 245 249 248 253 262 266 265 271 277 275 283 292 297 304 302 298
272 275 277 285 293 290 284 280 271 259 253 259 259 256 254 248 246 248 244 235 227 225 225 221 225 230 227 231 237 241 248 244 244 248 250 254 265 273 279 286 291 296 299 293 297
262 264 268 272 274 284 288 281 278 273 261 255 258 260 261 257 250 248 246 241 232 231 233 231 231 235 238 241 240 242 243 244 244 249 256 274 279 279 282 284 289 294 292 294 302
262 263 263 265 267 269 274 283 284 276 271 263 260 261 259 259 256 256 249 245 240 238 239 237 235 236 235 237 244 245 245 246 249 254 264 271 273 274 278 281 286 287 290 297 304
256 258 260 259 258 261 266 270 271 273 269 263 258 256 254 255 254 257 255 247 247 243 239 239 245 247 242 238 239 242 248 253 259 264 266 265 263 267 272 277 280 280 283 288 291
261 260 258 261 258 255 255 256 261 265 265 265 259 260 254 250 251 243 251 254 248 247 246 243 245 246 241 237 242 246 251 256 259 263 261 261 261 261 262 268 265 266 269 274 285
270 270 268 264 266 264 263 261 258 254 259 263 261 260 259 256 252 251 249 246 247 246 246 245 242 240 236 238 248 253 254 257 266 271 264 260 254 253 256 259 256 255 263 272 280
266 267 267 265 266 266 265 264 264 261 263 257 257 255 254 254 257 256 257 255 252 247 245 247 246 245 244 245 252 255 258 263 267 268 265 253 252 253 256 259 262 264 269 276 281
266 267 269 269 268 269 265 263 264 263 260 265 256 255 247 251 254 254 252 257 257 256 254 250 250 250 249 252 256 257 260 263 264 264 261 264 260 264 263 265 274 283 286 288 292
268 265 266 267 266 265 266 268 265 263 261 261 261 259 259 251 250 252 252 252 254 255 253 254 256 253 252 253 255 256 258 263 264 265 267 268 268 267 272 277 284 288 289 293 300
260 259 261 263 265 262 261 260 263 264 261 258 259 259 259 255 254 251 251 252 254 253 254 255 255 254 253 253 254 256 260 261 265 269 270 278 276 276 283 292 294 292 293 296 301
260 258 258 257 257 259 256 256 257 258 257 259 257 257 258 256 256 254 252 252 253 255 253 253 255 256 254 255 257 257 261 261 267 267 268 271 274 279 284 288 291 291 291 293 294
261 261 262 263 262 261 261 257 255 255 256 256 257 257 258 259 256 255 252 253 254 253 253 251 254 254 254 255 258 259 260 262 263 266 270 270 275 285 287 287 286 287 288 290 293
260 260 261 261 261 261 259 258 257 257 256 256 254 253 253 251 251 253 257 257 257 257 254 252 251 248 246 251 254 256 259 261 266 268 270 273 278 282 284 283 284 285 288 293 293
259 258 256 257 258 258 259 263 264 254 253 252 252 249 249 248 247 251 253 255 255 255 250 248 246 246 245 249 252 256 260 263 269 270 273 277 284 287 286 286 287 289 293 295 296
253 252 249 249 251 255 259 261 262 261 256 250 250 251 248 249 246 244 247 250 253 255 252 250 241 241 243 245 251 255 259 266 273 275 278 280 283 285 288 288 292 294 296 296 297
247 250 251 248 247 250 259 264 266 268 263 255 248 247 246 247 250 247 243 239 241 249 251 248 248 241 243 247 250 256 262 267 269 277 282 285 284 284 285 287 293 294 292 294 296
249 251 249 251 250 250 257 264 265 265 266 261 251 246 246 246 248 252 250 245 237 238 245 245 247 243 250 248 252 258 264 267 271 276 280 288 289 291 283 289 294 294 297 297 299
254 250 252 250 252 253 251 258 266 269 266 267 264 255 245 243 251 248 253 250 245 241 237 240 249 252 250 252 258 260 259 264 271 278 285 285 293 293 292 292 294 294 294 296 299
261 258 256 252 248 247 252 254 258 262 265 269 270 268 257 243 243 249 248 248 248 246 244 245 244 250 258 264 258 257 260 266 274 281 286 289 291 295 295 295 295 292 293 296 300
259 260 259 256 253 251 249 254 258 260 261 264 269 269 266 257 246 245 246 247 245 242 244 242 253 260 261 262 258 261 261 264 269 279 284 293 296 295 292 293 291 291 295 299 298
257 259 258 256 256 256 252 253 258 262 265 263 262 266 267 262 254 247 248 245 247 248 247 246 253 259 258 263 265 264 260 267 279 283 287 290 292 290 292 288 286 291 293 295 297
258 256 255 255 257 258 254 252 258 261 261 261 261 260 265 267 263 251 250 253 246 246 246 248 252 252 258 263 263 259 261 271 278 283 286 288 288 293 289 288 291 288 290 292 299
Height
5869 5869 5869 5869 5869 5870 5870 5870 5871 5871 5871 5872 5873 5874 5875 5876 5877 5878 5879 5880 5881 5882 5882 5883 5885 5886 5887 5887 5888 5890 5891 5893 5896 5898 5900 5899 5900 5901 5902 5902 5902 5902 5899 5900 5899
5868 5868 5868 5868 5868 5868 5868 5869 5869 5870 5870 5871 5871 5873 5873 5874 5875 5876 5877 5878 5879 5880 5881 5882 5883 5884 5885 5885 5886 5887 5889 5890 5893 5895 5897 5897 5898 5898 5898 5898 5897 5897 5897 5895 5896
5867 5867 5866 5866 5866 5867 5867 5868 5868 5868 5868 5869 5870 5871 5872 5873 5874 5875 5875 5876 5877 5878 5879 5880 5881 5882 5883 5884 5884 5886 5887 5888 5889 5892 5893 5894 5893 5894 5894 5894 5892 5892 5892 5892 5888
5865 5865 5865 5865 5865 5865 5865 5866 5866 5866 5867 5867 5868 5870 5871 5872 5874 5873 5873 5874 5875 5876 5876 5877 5879 5880 5881 5882 5882 5882 5885 5886 5887 5888 5889 5890 5890 5889 5889 5889 5888 5887 5888 5887 5885
5864 5864 5864 5864 5863 5863 5864 5864 5864 5864 5865 5866 5867 5868 5869 5870 5871 5871 5872 5873 5873 5874 5874 5875 5877 5878 5879 5879 5880 5880 5881 5884 5885 5885 5886 5885 5885 5885 5885 5884 5884 5884 5884 5882 5880
5861 5861 5862 5862 5862 5862 5862 5862 5862 5862 5863 5863 5864 5865 5866 5868 5868 5868 5869 5870 5871 5871 5872 5873 5874 5876 5877 5877 5878 5879 5878 5881 5882 5882 5882 5882 5882 5882 5882 5881 5881 5880 5879 5877 5877
5858 5858 5858 5859 5859 5859 5860 5860 5860 5860 5860 5861 5862 5862 5864 5865 5865 5865 5866 5867 5868 5869 5870 5871 5872 5874 5875 5875 5876 5877 5877 5877 5878 5878 5878 5879 5879 5878 5878 5878 5877 5875 5874 5873 5873
5853 5854 5855 5855 5856 5856 5856 5857 5857 5857 5858 5858 5858 5859 5860 5861 5862 5862 5864 5865 5866 5866 5867 5868 5869 5870 5872 5873 5873 5874 5876 5875 5876 5876 5876 5877 5875 5875 5874 5874 5874 5872 5870 5869 5868
5848 5849 5849 5850 5851 5852 5853 5853 5854 5854 5854 5854 5855 5856 5857 5858 5859 5859 5860 5862 5863 5864 5865 5866 5867 5868 5869 5870 5871 5872 5872 5873 5873 5873 5873 5874 5872 5871 5871 5870 5870 5868 5867 5866 5865
5843 5843 5844 5845 5846 5847 5848 5849 5849 5850 5850 5850 5851 5854 5853 5854 5855 5855 5856 5858 5859 5860 5862 5863 5864 5865 5866 5867 5869 5868 5869 5869 5869 5870 5870 5869 5869 5867 5867 5868 5867 5866 5864 5864 5863
5838 5838 5838 5840 5840 5843 5844 5845 5846 5846 5846 5847 5848 5848 5848 5850 5851 5852 5853 5854 5855 5857 5858 5859 5860 5861 5862 5863 5864 5865 5866 5865 5865 5865 5867 5866 5865 5865 5864 5865 5865 5864 5862 5861 5860
5832 5832 5832 5834 5834 5836 5838 5840 5841 5842 5841 5842 5843 5843 5844 5845 5846 5847 5849 5850 5851 5853 5855 5856 5856 5857 5858 5859 5860 5860 5861 5861 5862 5861 5861 5862 5862 5861 5861 5861 5862 5860 5859 5858 5856
5826 5827 5826 5828 5828 5830 5832 5833 5834 5836 5837 5836 5838 5837 5839 5840 5840 5842 5844 5844 5846 5848 5850 5851 5852 5853 5854 5855 5856 5856 5856 5856 5857 5856 5857 5857 5857 5857 5858 5858 5857 5855 5853 5851 5849
5817 5820 5820 5820 5823 5822 5825 5827 5827 5830 5832 5832 5832 5833 5835 5833 5834 5836 5837 5839 5840 5842 5844 5845 5846 5848 5849 5850 5851 5852 5852 5852 5852 5853 5853 5853 5854 5853 5854 5853 5852 5850 5848 5846 5843
5808 5811 5812 5812 5812 5815 5818 5818 5820 5823 5823 5826 5826 5827 5828 5831 5829 5831 5830 5832 5833 5835 5839 5841 5840 5842 5844 5844 5846 5848 5847 5848 5847 5848 5848 5849 5848 5850 5849 5848 5845 5844 5842 5839 5837
5798 5801 5803 5804 5804 5804 5807 5809 5811 5815 5815 5818 5819 5820 5822 5824 5824 5825 5826 5826 5827 5828 5831 5833 5835 5837 5838 5839 5840 5842 5842 5843 5843 5843 5845 5844 5843 5846 5845 5844 5841 5838 5836 5835 5833
5788 5791 5792 5792 5794 5795 5797 5800 5802 5803 5808 5809 5812 5814 5814 5816 5818 5818 5819 5820 5822 5823 5825 5827 5829 5831 5833 5834 5835 5836 5837 5837 5838 5838 5839 5838 5839 5840 5837 5836 5834 5832 5831 5829 5826
5779 5782 5782 5783 5784 5786 5788 5789 5791 5796 5799 5801 5803 5805 5807 5807 5809 5811 5814 5815 5817 5817 5819 5821 5823 5825 5826 5828 5828 5830 5831 5832 5831 5832 5832 5831 5833 5833 5831 5828 5827 5825 5824 5823 5819
5770 5773 5774 5775 5776 5777 5780 5781 5784 5785 5788 5792 5795 5796 5797 5799 5802 5803 5806 5808 5809 5810 5814 5814 5816 5817 5819 5820 5823 5825 5825 5825 5826 5825 5825 5826 5827 5825 5823 5821 5819 5818 5817 5814 5810
5762 5764 5766 5767 5769 5770 5772 5774 5774 5776 5779 5782 5785 5788 5790 5790 5793 5795 5797 5801 5802 5804 5806 5808 5810 5811 5813 5814 5817 5818 5819 5820 5820 5818 5819 5821 5821 5819 5817 5814 5812 5810 5808 5805 5802
5756 5757 5759 5759 5762 5763 5764 5766 5767 5768 5772 5774 5776 5778 5781 5783 5784 5786 5789 5795 5797 5798 5800 5802 5804 5807 5806 5809 5810 5811 5812 5813 5814 5813 5812 5812 5815 5815 5811 5807 5807 5804 5801 5798 5795
5749 5750 5752 5752 5755 5755 5756 5758 5761 5761 5763 5765 5768 5770 5771 5772 5776 5779 5782 5787 5790 5792 5793 5795 5797 5800 5802 5803 5804 5805 5806 5807 5807 5808 5806 5806 5808 5806 5804 5802 5801 5797 5794 5790 5787
5741 5742 5744 5746 5747 5748 5749 5751 5752 5754 5755 5757 5759 5762 5764 5765 5767 5770 5774 5779 5782 5786 5787 5790 5789 5792 5794 5797 5800 5799 5800 5800 5800 5800 5800 5799 5801 5798 5798 5797 5794 5791 5787 5783 5778
5732 5733 5735 5737 5739 5741 5742 5744 5745 5745 5747 5749 5750 5752 5754 5757 5758 5760 5765 5769 5772 5776 5779 5781 5782 5785 5788 5792 5792 5792 5794 5794 5793 5792 5793 5793 5792 5791 5790 5788 5786 5783 5779 5775 5771
5722 5724 5724 5727 5730 5732 5733 5735 5735 5736 5738 5739 5741 5742 5744 5747 5749 5751 5755 5759 5764 5764 5769 5772 5774 5777 5779 5782 5783 5785 5787 5786 5787 5787 5786 5785 5784 5784 5782 5780 5777 5773 5771 5767 5763
5711 5713 5715 5716 5718 5721 5724 5725 5727 5728 5729 5729 5731 5734 5735 5737 5740 5742 5744 5748 5751 5755 5759 5759 5766 5769 5770 5773 5775 5776 5777 5777 5779 5779 5778 5776 5776 5776 5775 5772 5768 5766 5763 5759 5755
5698 5700 5703 5706 5707 5709 5712 5714 5717 5719 5720 5720 5721 5723 5726 5728 5729 5734 5735 5736 5739 5744 5747 5752 5757 5761 5762 5764 5765 5765 5768 5770 5771 5771 5769 5768 5768 5767 5765 5763 5761 5758 5755 5752 5749